Location: Berlise
(49.6641°N, 4.1077°E)
Time: 01:57:24
(UTC+00:00)

BREEZE M DEB (TANK) - Pass Details

Date: 27 January 2021
Orbit: 283 x 14500 km, 49.5° (Epoch: 28 February)

Event Time Altitude Azimuth Distance (km) Brightness Sun altitude
Exits shadow 06:10:16 - 226° (SW) 1,388 4.1 -11.7°
Reaches altitude 10° 06:10:33 10° 224° (SW) 1,259 3.9 -11.7°
Maximum altitude 06:12:48 43° 149° (SSE) 658 3.1 -11.3°
Drops below altitude 10° 06:17:42 10° 77° (ENE) 2,741 6.9 -10.6°
Sets 06:22:29 0° 73° (ENE) 5,009 8.2 -9.8°
